Tacoma Narrows, WA

9:54 PM PDT on March 28, 2017 (GMT -0700)
Tacoma Narrows

Weather History for KTIW - March, 2014

Change the Weather History Date:

Friday, March 7, 2014

  Actual Average Record
Temperature  
Mean Temperature 51 °F -  
Max Temperature 57 °F 48 °F 64 °F (2001)
Min Temperature 45 °F 38 °F 30 °F (1999)
Degree Days  
Heating Degree Days 14    
Growing Degree Days 1 (Base 50)    
Moisture  
Dew Point 43 °F    
Average Humidity 78    
Maximum Humidity 93    
Minimum Humidity 51    
Precipitation  
Precipitation 0.00 in - - ()
Sea Level Pressure  
Sea Level Pressure 30.21 in    
Wind  
Wind Speed 8 mph (South)    
Max Wind Speed 13 mph    
Max Gust Speed 21 mph    
Visibility 10 miles    
Events Rain    
Averages and records for this station are not official NWS values.
T = Trace of Precipitation, MM = Missing Value Source: NWS Daily Summary

Daily Weather History Graph

Daily Weather History Graph

Search for Another Location

Airport or City:

Trip Planner

Search our weather history database for the weather conditions in past years. The results will help you decide how hot, cold, wet, or windy it might be!

Date:

Astronomy

Mar. 07, 2014 Rise Set
Actual Time 6:38 AM PST 6:04 PM PST
Civil Twilight 6:08 AM PST 6:35 PM PST
Nautical Twilight 5:32 AM PST 7:10 PM PST
Astronomical Twilight 4:57 AM PST 7:46 PM PST
Moon 10:11 AM PST (3/7) 12:38 AM PST (3/7)
Length of Visible Light 12h 26m
Length of Day
11h 25m
Waxing Crescent, 43% of the Moon is Illuminated
Mar 7
Waxing Crescent
Mar 8
First Quarter
Mar 16
Full
Mar 23
Last Quarter
Mar 30
New

Hourly Weather History & Observations

Time (PST) Temp. Windchill Dew Point Humidity Pressure Visibility Wind Dir Wind Speed Gust Speed Precip Events Conditions
12:53 AM 48.0 °F - 45.0 °F 89% 30.13 in 10.0 mi SSW 9.2 mph - N/A   Overcast
1:23 AM 48.0 °F - 45.0 °F 89% 30.13 in 8.0 mi SSW 12.7 mph 20.7 mph 0.00 in Rain Light Rain
1:48 AM 46.4 °F 41.5 °F 44.6 °F 93% 30.14 in 10.0 mi SSW 10.4 mph - 0.00 in   Mostly Cloudy
1:53 AM 46.9 °F - 44.1 °F 90% 30.15 in 10.0 mi South 9.2 mph - 0.00 in   Mostly Cloudy
2:01 AM 46.9 °F - 44.1 °F 90% 30.15 in 10.0 mi SSW 8.1 mph - N/A   Scattered Clouds
2:14 AM 46.9 °F - 44.1 °F 90% 30.15 in 10.0 mi South 9.2 mph - N/A   Mostly Cloudy
2:53 AM 46.9 °F - 43.0 °F 86% 30.17 in 10.0 mi SSW 10.4 mph - N/A   Overcast
3:36 AM 46.9 °F - 43.0 °F 86% 30.16 in 10.0 mi SSW 9.2 mph - N/A   Partly Cloudy
3:50 AM 46.4 °F 41.9 °F 42.8 °F 87% 30.17 in 10.0 mi SSW 9.2 mph - N/A   Mostly Cloudy
3:53 AM 46.9 °F - 43.0 °F 86% 30.17 in 10.0 mi SSW 10.4 mph - N/A   Mostly Cloudy
4:53 AM 46.0 °F 43.1 °F 42.1 °F 86% 30.19 in 10.0 mi South 5.8 mph - N/A   Overcast
5:43 AM 45.0 °F 39.3 °F 42.1 °F 90% 30.20 in 10.0 mi South 11.5 mph - N/A   Scattered Clouds
5:53 AM 46.0 °F 40.6 °F 42.1 °F 86% 30.21 in 10.0 mi South 11.5 mph - N/A   Mostly Cloudy
6:41 AM 46.0 °F 41.0 °F 42.1 °F 86% 30.23 in 10.0 mi South 10.4 mph - N/A   Mostly Cloudy
6:53 AM 46.0 °F 40.6 °F 42.1 °F 86% 30.23 in 10.0 mi South 11.5 mph - N/A   Overcast
7:53 AM 48.0 °F - 43.0 °F 83% 30.25 in 10.0 mi South 8.1 mph - N/A   Overcast
8:53 AM 48.9 °F - 43.0 °F 80% 30.28 in 10.0 mi South 10.4 mph - N/A   Overcast
9:19 AM 48.9 °F - 44.1 °F 83% 30.28 in 10.0 mi South 11.5 mph - N/A   Overcast
9:53 AM 50.0 °F - 44.1 °F 80% 30.28 in 10.0 mi South 8.1 mph - N/A   Overcast
10:53 AM 50.0 °F - 45.0 °F 83% 30.29 in 5.0 mi South 4.6 mph - N/A   Haze
10:54 AM 50.0 °F - 45.0 °F 83% 30.29 in 5.0 mi South 4.6 mph - N/A   Haze
11:15 AM 50.0 °F - 45.0 °F 83% 30.28 in 9.0 mi South 4.6 mph - N/A   Overcast
11:53 AM 53.1 °F - 46.0 °F 77% 30.29 in 10.0 mi Variable 4.6 mph - N/A   Mostly Cloudy
12:53 PM 54.0 °F - 45.0 °F 72% 30.28 in 10.0 mi South 4.6 mph - N/A   Mostly Cloudy
1:53 PM 55.9 °F - 42.1 °F 60% 30.26 in 10.0 mi South 4.6 mph - N/A   Overcast
1:54 PM 55.9 °F - 42.1 °F 60% 30.26 in 10.0 mi South 4.6 mph - N/A   Overcast
2:53 PM 57.0 °F - 41.0 °F 55% 30.23 in 10.0 mi South 5.8 mph - N/A   Scattered Clouds
3:53 PM 57.0 °F - 39.9 °F 53% 30.21 in 10.0 mi South 3.5 mph - N/A   Partly Cloudy
4:53 PM 57.9 °F - 39.9 °F 51% 30.21 in 10.0 mi Variable 3.5 mph - N/A   Scattered Clouds
5:53 PM 55.9 °F - 41.0 °F 57% 30.21 in 10.0 mi Calm Calm - N/A   Scattered Clouds
6:53 PM 53.1 °F - 39.9 °F 61% 30.21 in 10.0 mi Calm Calm - N/A   Clear
7:53 PM 51.1 °F - 39.9 °F 66% 30.19 in 10.0 mi Calm Calm - N/A   Clear
8:53 PM 52.0 °F - 39.9 °F 63% 30.19 in 10.0 mi Calm Calm - N/A   Clear
9:53 PM 50.0 °F - 39.9 °F 68% 30.17 in 10.0 mi SE 3.5 mph - N/A   Clear
10:53 PM 48.9 °F - 39.9 °F 71% 30.15 in 10.0 mi SE 3.5 mph - N/A   Clear
11:53 PM 45.0 °F 43.5 °F 39.9 °F 82% 30.12 in 10.0 mi ENE 3.5 mph - N/A   Clear